Wind_Speed
17 17 19 22 26 29 27 23 20 16 10 8 5 13 15 14 13 13 14 13 9 11 15 12 11 8 10 11 12 7 11 16 18 20 14 11 11 5 4 6 3 3 7 16 21
15 16 18 21 21 22 24 27 24 19 15 16 12 9 14 16 18 12 5 11 10 13 15 13 13 11 8 14 8 10 12 20 14 11 14 15 12 10 8 10 7 7 6 20 20
15 16 16 20 20 19 20 20 23 23 17 24 23 15 11 17 12 7 7 9 13 16 13 10 12 12 14 14 15 12 15 9 3 1 4 14 10 9 8 10 9 13 14 17 20
14 16 16 18 18 18 17 14 15 16 15 16 17 10 5 2 2 3 14 12 11 12 10 6 9 14 15 16 19 18 10 8 7 2 4 13 9 7 10 5 7 1 16 19 15
13 15 16 17 17 18 17 15 9 10 10 10 11 8 4 3 5 3 12 9 8 9 11 3 12 13 17 17 19 15 8 4 7 6 7 8 10 7 9 4 3 8 15 16 15
12 15 16 16 17 18 15 14 13 9 9 11 10 4 3 5 4 9 9 9 6 7 7 5 10 15 13 18 15 11 11 10 7 7 5 10 6 4 7 4 9 11 12 13 14
11 13 15 16 20 19 11 11 14 8 9 11 9 5 16 7 6 9 5 3 7 2 6 16 21 7 7 17 8 14 11 11 8 8 4 7 7 7 5 7 10 11 11 12 12
12 13 14 16 21 15 8 11 11 4 4 7 7 9 8 6 8 4 6 5 1 3 6 17 11 3 8 9 7 15 13 13 6 8 4 5 12 8 5 9 10 11 11 11 11
12 13 14 17 20 10 8 10 10 5 1 1 2 2 7 5 3 5 5 3 2 8 10 14 7 5 5 16 11 14 13 16 8 2 6 10 12 8 5 7 10 10 11 10 10
10 11 12 15 18 12 6 7 9 6 2 3 2 4 5 3 4 3 9 4 5 7 9 7 6 10 12 12 12 15 15 16 10 8 8 13 8 7 6 7 9 8 8 9 8
7 8 9 13 15 15 5 3 1 3 13 6 7 7 5 3 5 4 4 13 16 4 5 7 8 14 17 15 3 11 13 14 12 3 9 14 8 7 8 7 8 7 8 8 8
7 6 7 8 9 13 9 5 3 2 3 4 5 6 3 4 11 8 1 3 5 4 4 7 8 6 7 5 2 7 13 12 5 1 4 8 11 9 6 6 6 8 9 8 7
7 6 7 5 4 5 10 6 2 2 3 6 4 5 3 8 8 6 4 4 6 3 3 7 5 1 6 9 7 5 13 12 8 6 3 6 11 7 4 4 4 3 3 3 4
8 10 8 4 4 1 3 3 3 2 0 11 8 5 6 4 5 5 4 4 3 6 7 8 4 3 8 6 3 6 5 5 11 9 4 3 5 11 9 8 6 5 4 3 2
11 10 5 3 3 2 2 4 1 2 2 11 6 4 4 3 3 4 2 1 5 7 4 3 7 6 5 3 3 3 2 7 6 3 2 5 1 7 8 9 9 7 5 4 3
9 10 4 4 6 2 2 0 2 1 4 5 6 9 1 7 2 1 1 2 0 8 16 6 4 5 4 5 5 8 9 8 4 3 1 3 2 5 8 10 10 8 6 4 4
6 7 7 4 2 2 2 2 2 4 1 5 4 7 5 7 4 5 4 6 2 4 5 4 5 3 5 5 3 3 8 2 2 1 3 0 2 3 7 4 7 7 6 5 4
4 6 5 5 3 2 2 1 6 2 2 1 2 4 4 8 4 5 2 3 8 4 3 1 3 5 9 3 1 2 1 1 3 4 3 2 5 5 8 6 6 6 6 6 5
4 2 4 9 3 0 4 5 4 2 2 2 1 2 2 3 3 2 5 3 5 7 2 3 3 1 3 3 4 3 3 1 2 2 2 4 3 6 8 7 8 7 7 6 4
4 3 2 8 4 6 3 3 2 1 0 1 0 3 2 4 1 2 3 3 3 5 3 2 4 1 0 2 4 2 3 2 0 2 3 4 3 3 12 12 11 9 7 4 3
2 3 2 3 3 2 3 3 2 2 1 1 1 0 2 2 3 2 3 2 4 4 3 0 1 3 2 2 2 2 2 1 2 2 2 2 2 1 10 14 14 8 5 3 3
1 2 5 1 1 2 3 4 0 1 2 1 1 2 2 1 1 1 1 2 1 2 3 4 1 3 2 3 1 3 2 4 3 4 0 2 2 1 7 13 13 8 4 4 4
3 1 2 1 1 3 3 3 1 4 1 1 1 1 1 1 2 0 1 2 3 2 2 3 1 2 3 3 3 5 6 2 1 2 5 2 1 3 6 10 11 8 4 5 5
3 1 2 2 2 6 6 3 3 1 2 1 1 1 2 2 1 2 2 2 1 1 2 3 1 1 2 4 3 3 8 9 6 3 5 6 1 7 11 12 12 10 5 5 6
2 1 3 2 2 2 1 5 5 5 3 3 3 4 2 2 2 2 2 2 3 2 3 2 3 3 3 3 3 5 6 11 10 12 7 3 10 9 12 13 12 10 5 6 7
4 3 2 1 1 5 3 5 6 3 5 4 3 6 5 2 3 2 2 3 2 3 3 3 3 2 3 2 5 10 12 14 16 17 16 17 16 4 2 8 9 6 6 6 5
2 1 3 2 2 4 2 6 8 5 3 2 4 4 6 4 2 2 2 2 2 2 3 3 2 3 3 2 5 10 17 18 14 11 13 16 12 11 11 11 11 8 8 7 4
Wind_Direction
25 24 27 27 35 36 31 23 17 7 12 2 240 205 205 198 185 180 195 196 194 186 176 193 193 190 199 201 237 248 207 218 211 215 184 148 180 175 76 124 172 114 34 126 138
25 20 18 19 20 23 29 31 29 33 44 46 69 164 175 171 162 173 184 176 178 156 170 195 194 183 192 197 198 213 215 207 203 222 192 173 197 159 171 156 159 138 125 129 144
15 15 14 16 20 14 21 28 36 39 55 71 62 69 118 146 146 177 167 175 158 168 167 222 214 196 205 193 203 211 213 207 118 323 316 170 197 173 198 194 189 183 158 156 158
10 9 7 10 13 12 8 15 27 46 50 28 20 40 112 90 141 105 147 117 154 158 149 315 222 199 200 190 198 196 232 191 130 71 201 171 177 200 212 54 10 237 162 164 169
359 1 358 358 360 2 360 356 355 1 358 358 11 24 41 56 37 143 156 134 121 148 147 184 208 198 202 197 181 223 161 112 127 153 180 159 178 199 178 62 119 133 158 171 171
349 352 353 352 355 351 357 5 8 358 346 351 8 115 82 70 24 118 141 135 137 149 150 223 230 203 217 194 185 197 153 131 134 139 146 175 161 199 125 134 132 148 162 172 175
345 349 349 347 348 346 342 344 345 1 21 53 55 26 68 66 120 105 141 103 144 210 151 245 271 201 189 171 191 144 145 135 141 155 134 189 175 195 117 150 145 158 161 165 175
344 348 349 347 347 348 339 342 343 340 57 97 50 65 63 83 113 109 73 70 180 191 136 273 273 274 250 119 172 179 165 171 141 174 144 210 188 116 153 158 156 158 159 169 172
342 347 350 350 356 351 338 354 0 77 66 143 309 351 67 139 111 80 46 23 247 251 250 271 229 196 169 176 164 186 187 186 149 191 155 208 175 137 158 178 163 174 169 182 183
337 347 351 353 3 355 330 346 36 38 331 254 263 197 125 8 117 228 198 224 261 246 226 202 215 170 176 181 180 183 198 189 161 167 203 190 107 145 159 180 174 191 188 194 205
333 348 354 356 6 11 11 308 231 96 42 35 8 34 20 32 155 90 138 193 228 220 182 202 197 167 176 178 276 189 222 176 110 127 203 193 166 157 165 181 186 198 213 207 210
341 344 349 355 2 13 28 55 44 7 83 70 28 68 69 294 98 74 248 106 146 147 190 185 117 42 85 119 208 189 175 172 92 142 244 178 213 146 172 178 204 210 216 223 219
354 343 340 342 6 34 60 56 353 332 283 55 54 16 4 19 63 49 18 360 17 98 162 117 71 298 184 151 152 201 195 145 164 149 65 179 213 170 176 172 160 180 248 271 270
359 342 331 341 115 95 63 1 357 308 135 6 6 42 347 306 88 49 330 336 41 54 56 58 39 173 151 101 338 176 5 115 141 154 183 243 203 198 169 164 169 156 166 161 156
2 10 18 75 102 73 321 333 358 262 57 342 350 320 339 46 76 52 19 65 68 49 233 42 43 39 98 41 359 85 163 117 131 95 185 182 330 131 185 180 163 140 131 119 97
3 17 54 56 71 46 336 315 246 62 39 353 342 358 86 48 66 11 68 83 193 64 63 82 91 28 44 62 76 135 133 107 109 115 329 117 248 171 179 196 149 139 128 121 90
352 0 42 52 92 355 99 226 54 66 101 352 347 354 2 20 57 25 56 49 44 87 32 68 43 61 349 101 142 225 174 64 82 61 242 37 209 49 114 87 137 140 126 114 115
312 339 351 25 24 82 203 205 58 3 69 104 331 328 40 360 39 17 52 70 46 37 128 113 141 8 356 17 349 129 146 129 169 189 156 166 223 141 128 127 136 127 122 122 109
284 302 319 328 355 283 246 49 46 76 25 320 227 37 54 69 333 6 40 47 30 2 4 137 98 78 21 5 329 170 213 38 95 74 259 159 143 146 160 148 151 141 141 125 95
312 273 336 338 325 262 62 105 125 102 322 248 344 317 53 17 354 11 23 25 16 14 323 79 110 131 74 267 77 338 117 165 183 129 224 183 239 212 187 176 165 159 149 119 66
307 260 359 354 327 64 79 69 116 155 217 288 20 212 59 4 32 47 46 75 12 347 329 198 139 145 245 211 162 147 197 244 320 294 271 245 163 24 197 180 173 152 155 124 107
161 280 344 84 287 16 101 111 48 154 197 205 283 350 337 22 45 103 101 72 52 334 351 23 333 152 96 115 290 292 277 263 251 178 106 335 266 53 163 181 171 163 149 142 139
300 345 331 302 122 101 122 122 163 175 249 225 229 293 181 235 273 293 163 102 3 341 16 24 245 135 159 185 196 232 191 229 118 352 213 221 189 136 153 171 176 186 170 174 173
295 276 117 81 334 137 152 159 157 177 148 303 347 274 238 214 193 190 188 164 7 86 350 280 261 285 329 20 28 201 203 207 198 205 220 217 253 194 193 194 197 202 199 200 194
354 45 335 141 100 102 265 164 165 184 213 189 179 240 261 261 237 211 166 207 204 177 204 269 282 302 270 256 275 273 248 211 208 228 236 255 227 251 204 202 201 205 196 192 199
330 321 234 94 161 173 168 213 199 171 179 198 222 170 184 255 330 331 174 216 296 194 240 211 195 227 274 244 260 266 259 247 234 244 258 261 265 263 232 192 171 197 187 191 188
357 263 298 109 228 243 189 173 199 165 222 286 230 182 215 199 162 107 58 24 1 309 224 265 237 218 230 188 277 267 239 228 228 228 239 245 258 253 230 202 225 206 189 179 186
Height
801 799 795 792 787 782 777 773 768 764 760 758 755 757 760 764 769 773 774 775 777 778 783 785 786 787 787 784 781 776 776 779 768 765 771 771 781 779 783 788 790 793 790 793 808
803 800 796 793 789 785 781 776 772 768 764 761 756 758 762 764 769 772 774 775 776 780 783 783 783 785 784 782 783 780 776 768 755 755 765 776 776 784 786 789 794 799 801 805 811
804 801 797 793 790 787 783 780 777 773 769 767 766 766 766 767 769 771 774 776 778 780 782 784 782 783 780 776 776 777 773 756 766 763 765 775 779 779 781 792 784 793 800 806 811
804 801 798 794 791 788 785 783 781 778 776 773 771 770 769 770 775 772 774 777 780 780 781 786 783 782 778 776 771 776 765 762 775 778 774 779 776 785 779 788 785 785 797 804 809
804 802 798 795 792 789 786 784 782 781 778 776 775 772 772 771 774 775 777 779 782 782 784 787 783 779 776 772 770 771 775 776 779 784 779 778 783 782 783 790 791 791 799 803 808
803 801 798 795 792 789 786 784 783 781 779 776 776 775 775 778 778 777 778 781 783 784 786 788 778 772 770 768 772 765 775 780 781 785 786 786 789 789 790 792 794 798 801 804 808
803 800 798 794 791 787 786 785 784 782 779 777 776 775 773 781 780 780 781 782 783 786 785 784 780 776 766 768 767 769 784 781 782 784 790 783 797 793 792 792 796 798 801 804 809
802 800 797 794 789 785 785 784 783 781 781 779 777 776 779 784 784 783 783 783 785 786 787 785 780 775 771 769 774 774 777 787 788 786 792 792 795 796 795 793 795 798 802 806 810
803 800 796 793 789 785 784 784 781 781 780 779 779 777 783 786 784 785 785 787 788 787 788 783 779 772 775 775 779 773 783 776 794 788 787 791 784 797 797 794 796 798 800 806 810
800 799 796 794 790 786 784 783 783 782 781 779 779 780 783 786 786 786 788 789 786 787 784 779 775 773 773 774 786 780 773 770 784 792 790 789 791 798 800 798 798 799 800 805 807
798 796 795 793 791 787 784 783 783 783 784 788 788 784 784 786 786 787 788 788 787 783 779 775 776 775 770 768 773 765 768 771 781 795 789 786 786 797 801 802 801 802 802 803 806
798 796 795 793 792 791 788 788 795 797 789 790 788 785 788 785 783 788 786 786 789 780 776 776 778 784 779 781 778 772 776 779 797 799 797 788 787 794 800 799 799 801 801 802 804
798 795 793 791 791 792 793 796 796 796 785 786 789 787 789 786 786 790 783 782 781 776 773 777 793 794 783 783 783 778 774 785 786 801 797 793 793 799 804 804 806 808 807 807 809
798 795 792 791 793 793 795 795 795 796 790 795 789 791 788 787 790 793 791 792 787 789 788 795 796 790 782 792 794 792 799 784 794 798 807 801 803 792 797 803 804 806 807 807 810
799 796 792 790 792 794 798 795 795 796 801 798 795 793 790 788 790 792 794 788 791 795 792 811 804 793 791 804 802 804 801 793 794 811 803 803 813 790 796 803 803 806 809 810 812
800 797 794 793 793 796 795 794 796 798 808 808 798 796 789 789 793 792 791 791 791 791 797 809 809 811 809 808 803 806 800 801 804 822 819 812 814 803 797 789 800 807 810 811 812
802 800 797 795 795 794 794 796 801 805 809 810 807 801 796 797 794 794 795 795 794 806 816 806 813 813 813 804 807 805 796 831 821 831 807 852 830 796 799 798 798 805 810 811 811
801 801 800 797 795 794 795 789 806 812 810 808 807 801 804 803 800 797 794 796 797 793 812 806 819 817 818 814 808 809 810 807 808 809 797 834 805 796 802 806 808 809 811 811 811
801 800 801 798 795 794 789 808 803 807 810 808 803 806 799 800 804 798 803 803 806 804 799 800 814 820 822 818 816 809 807 810 809 818 803 792 795 806 808 810 809 809 810 812 812
803 801 799 797 795 795 792 806 807 811 811 810 806 802 797 803 799 797 800 811 808 809 805 802 815 820 819 820 817 811 811 809 813 817 803 794 793 789 809 808 808 809 810 813 815
804 797 799 797 796 790 805 808 811 812 812 808 802 800 800 802 802 803 806 814 812 809 807 803 802 821 820 812 809 814 809 809 803 803 796 789 787 794 809 801 806 810 811 814 816
801 798 800 798 795 795 800 806 816 812 812 809 807 806 802 803 800 807 805 807 814 814 805 810 798 810 808 817 820 816 805 799 802 805 807 805 797 796 794 797 802 809 811 814 816
797 794 798 798 795 800 812 811 812 811 812 810 808 809 808 805 806 805 810 815 815 812 809 809 801 811 812 817 819 814 808 806 807 810 803 801 793 799 797 800 803 807 809 813 815
803 798 795 798 801 793 801 806 810 815 812 814 812 812 809 806 808 806 812 815 817 813 820 815 802 804 801 803 800 811 809 809 808 807 790 800 795 800 801 802 803 806 808 810 813
806 804 808 793 798 800 800 802 806 809 812 811 809 811 810 806 806 804 814 814 815 817 812 809 807 806 801 805 808 805 802 808 818 796 791 781 787 783 789 794 797 800 805 809 812
808 807 810 804 806 798 805 804 802 808 807 807 807 803 806 806 806 804 805 810 807 815 811 810 802 809 811 808 809 809 802 799 799 799 794 787 787 783 785 791 801 803 807 809 812
816 815 812 812 804 801 792 796 801 804 810 806 805 805 808 804 808 810 812 812 810 809 810 810 807 807 796 809 806 797 783 788 787 785 789 791 782 778 784 793 797 799 805 809 812